Retour au catalogue

ATLAS 5 CENTAUR R/B

ActifHEO
NORAD 44483·ROCKET BODY·🇺🇸 United States

Lancé Aug 8, 2019 depuis Cape Canaveral Space Force Station

Loading…

Prochains Passages (prochaines 24 heures)

TLE

FraisSource: Space-Track

Époque: Sep 13, 2026, 17:50 UTC

1 44483U 19051C   26256.74314617 -.00000080  00000-0  00000+0 0  9991
2 44483   7.3330 135.4030 3497587 117.7148 281.9677  1.59360131 41340

Suivez ATLAS 5 CENTAUR R/B en temps réel avec AllMySat

Download on the App Store